CAPE
0 0 1 191 510 295 647 336 88 338 606 545 283 74 8 9 0 0 0 0 0 0
0 0 0 82 422 73 106 235 428 380 137 453 279 111 7 9 0 0 0 0 0 0
0 0 1 0 299 50 31 233 231 168 3 291 71 0 0 1 8 0 0 0 0 0
0 0 0 0 78 41 18 4 1 60 14 90 31 1 1 7 0 0 0 0 0 0
0 0 0 0 0 45 92 0 0 145 115 44 2 3 8 0 1 0 0 0 0 0
0 0 0 1 0 0 160 0 0 79 95 68 6 11 5 0 1 0 0 0 0 1
0 0 0 0 0 9 131 1 0 38 8 4 7 16 6 0 0 0 1 0 0 0
0 0 1 1 0 12 39 0 62 33 13 6 2 15 1 0 0 0 0 0 0 0
0 0 0 1 2 0 3 6 69 16 26 23 4 1 0 0 0 0 0 1 1 1
0 0 0 1 3 0 14 19 60 9 10 1 2 4 4 1 0 0 0 0 0 0
0 0 1 1 1 1 6 45 9 3 1 2 3 6 4 0 0 0 0 0 0 0
0 1 4 2 1 2 3 0 2 1 0 1 1 2 0 0 0 0 0 0 0 0
0 0 5 2 1 2 0 2 1 0 1 2 0 1 0 0 0 0 0 0 0 0
0 0 2 1 2 1 0 1 0 1 1 0 0 0 0 0 0 0 0 0 0 0
CIN
-0 -0 -0 -133 -46 -87 -36 -175 -302 -144 -69 -63 -69 -124 -91 -27 -93 -0 -0 -0 -0 -0
-0 -0 -0 -153 -46 -195 -249 -205 -106 -108 -202 -72 -95 -131 -122 -64 -7 -0 -0 -0 -0 -0
-0 -0 -0 -0 -32 -193 -290 -182 -157 -149 -145 -52 -105 -0 -0 -17 -85 -0 -0 -0 -0 -0
-0 -0 -0 -0 -85 -206 -261 -69 -101 -151 -165 -62 -87 -0 -12 -71 -0 -0 -0 -0 -0 -0
-0 -0 -0 -0 -0 -186 -178 -0 -0 -52 -19 -40 -53 -32 -48 -9 -0 -0 -0 -0 -0 -0
-0 -0 -0 -0 -0 -0 -116 -16 -0 -75 -34 -32 -9 -23 -39 -6 -0 -0 -0 -0 -0 -0
-0 -0 -0 -0 -0 -88 -64 -35 -0 -50 -55 -10 -2 -16 -35 -0 -0 -0 -0 -0 -0 -0
-0 -0 -0 -0 -0 -52 -90 -0 -19 -1 -1 -0 -2 -25 -4 -0 -0 -0 -0 -0 -0 -0
-0 -0 -0 -0 -0 -0 -35 -0 -0 -4 -1 -4 -5 -0 -0 -0 -0 -0 -0 -0 -0 -0
-0 -0 -0 -0 -0 -0 -15 -7 -0 -4 -13 -0 -0 -0 -0 -0 -0 -0 -0 -0 -0 -0
-0 -0 -0 -0 -0 -0 -4 -0 -23 -10 -0 -0 -0 -0 -0 -0 -0 -0 -0 -0 -0 -0
-0 -0 -0 -0 -0 -0 -6 -3 -0 -0 -0 -0 -0 -0 -0 -0 -0 -0 -0 -0 -0 -0
-0 -0 -0 -0 -0 -21 -0 -0 -0 -0 -0 -0 -0 -0 -0 -0 -0 -0 -0 -0 -0 -0
-0 -0 -0 -0 -0 -0 -0 -0 -0 -0 -0 -0 -0 -0 -0 -0 -0 -0 -0 -0 -0 -0
Wind_Speed
13 8 9 11 9 8 7 6 6 7 7 8 9 10 8 1 3 5 6 8 5 4
11 11 11 14 9 7 6 3 8 9 8 8 9 10 13 7 3 6 6 7 6 5
12 12 13 13 10 7 4 5 5 7 6 7 11 12 13 7 5 8 6 7 9 6
13 13 12 10 12 6 3 2 1 2 5 8 10 10 10 11 9 11 11 8 10 8
12 12 12 11 11 11 5 3 4 1 6 11 10 11 12 12 10 13 13 11 12 10
13 12 13 12 11 10 6 3 3 4 8 11 12 12 13 13 11 12 13 13 13 10
12 14 14 12 10 8 7 6 4 4 7 9 16 14 14 14 14 14 12 12 10 9
12 13 15 13 9 10 7 6 5 7 9 10 13 11 15 15 15 16 14 12 11 11
12 13 14 14 13 10 7 8 8 10 10 10 8 23 23 19 15 15 15 14 14 13
13 13 13 15 15 7 7 12 11 12 13 13 16 28 28 25 15 15 15 14 14 14
13 14 13 15 15 11 7 13 11 15 16 15 16 29 30 28 17 15 15 13 14 15
13 14 14 14 16 13 12 13 12 17 18 18 18 31 31 24 17 16 15 13 12 13
12 12 13 17 15 3 12 13 12 17 17 23 18 29 30 23 14 16 13 13 14 20
11 12 12 14 4 11 13 13 16 17 15 16 18 19 27 26 15 14 13 11 10 10
Wind_Direction
308 304 295 293 286 286 258 233 204 177 157 158 145 127 114 270 160 166 137 134 125 119
303 320 298 312 289 284 274 247 199 174 166 175 158 158 143 133 186 144 125 109 112 112
315 311 318 320 291 281 291 238 185 168 152 164 144 146 131 120 149 130 127 110 107 102
317 314 321 314 308 279 292 356 64 181 176 148 142 139 141 135 145 133 111 104 107 99
311 315 312 314 304 303 285 342 10 186 175 159 150 141 131 133 139 126 116 114 109 103
314 315 310 308 284 295 252 190 277 215 168 170 154 138 138 131 131 121 115 117 116 114
315 313 303 314 294 275 236 180 203 177 146 145 132 127 127 128 123 111 108 110 102 96
308 303 311 334 304 323 195 171 166 147 129 115 115 127 123 121 113 107 100 91 88 89
321 317 326 327 323 328 203 171 152 131 124 120 126 123 119 114 107 106 103 99 94 97
319 322 327 323 321 294 229 171 162 134 128 123 120 120 111 107 104 104 102 103 106 98
323 324 326 321 319 275 262 156 146 131 122 119 119 113 109 105 100 95 92 94 98 102
320 321 323 315 307 291 156 125 131 118 116 116 114 115 113 106 100 96 94 94 97 104
314 316 318 303 322 135 109 118 112 112 115 118 118 118 119 115 111 108 103 97 100 104
311 315 314 310 273 87 89 102 107 98 102 110 116 117 119 119 118 116 111 109 103 107